Location: Canet
(43.3261°N, 5.3723°E)
Time: 18:53:53
(UTC+00:00)

Cosmos 44 - Pass Details

Date: 24 January 2021
Orbit: 572 x 790 km, 65.1° (Epoch: 08 March)

Event Time Altitude Azimuth Distance (km) Brightness Sun altitude
Rises 18:19:22 0° 224° (SW) 2,956 7.4 -18.0°
Reaches altitude 10° 18:21:38 10° 229° (SW) 2,084 6.6 -18.4°
Maximum altitude 18:26:18 56° 308° (NW) 827 3.8 -19.3°
Enters shadow 18:29:53 19° 22° (NNE) 1,703 5.0 -19.9°
